User: anonymous   Login
Location: Mat�lon
(46.2791°N, 7.1028°E)
Time: 22:23:41
(UTC+00:00)
Language:

Okean 2 - Orbit

View from above orbital plane
View from above orbital plane
View from above satellite
View from above satellite

Ground track
Ground track

The orbit data is extracted from the following two-line orbital elements,

1 20510U 90018A   20336.91747872  .00000494  00000-0  37890-4 0  9993
2 20510  82.5174  37.3594 0012994  38.0024 134.7867 14.99565848649677
Epoch (UTC): 01 December 2020 22:01:10
Eccentricity: 0.0012994
inclination: 82.5174°
perigee height: 559 km
apogee height: 577 km
right ascension of ascending node: 37.3594°
argument of perigee: 38.0024°
revolutions per day: 14.99565848
mean anomaly at epoch: 134.7867°
orbit number at epoch: 64967

The dashed part of the orbit path shows where the satellite is in the earth's shadow,  

DLR